Beach, ND

11:17 PM MST on February 22, 2017 (GMT -0700)
Beach

Weather History for K20U - May, 2013

Change the Weather History Date:

Monday, May 20, 2013

  Actual Average (KGDV) Record (KGDV)
Temperature  
Mean Temperature 48 °F -  
Max Temperature 50 °F 65 °F 78 °F (1998)
Min Temperature 46 °F 41 °F 28 °F (2003)
Degree Days  
Heating Degree Days 17    
Moisture  
Dew Point 48 °F    
Average Humidity 100    
Maximum Humidity 100    
Minimum Humidity 100    
Precipitation  
Precipitation 0.62 in - - ()
Sea Level Pressure  
Sea Level Pressure 29.86 in    
Wind  
Wind Speed 24 mph (North)    
Max Wind Speed 30 mph    
Max Gust Speed 41 mph    
Visibility 4 miles    
Events Rain    
Averages and records for this station are not official NWS values.
T = Trace of Precipitation, MM = Missing Value Source: NWS Daily Summary

Daily Weather History Graph

Daily Weather History Graph

Search for Another Location

Airport or City:

Trip Planner

Search our weather history database for the weather conditions in past years. The results will help you decide how hot, cold, wet, or windy it might be!

Date:

Astronomy

May. 20, 2013 Rise Set
Actual Time 5:14 AM MDT 8:30 PM MDT
Civil Twilight 4:38 AM MDT 9:07 PM MDT
Nautical Twilight 3:50 AM MDT 9:56 PM MDT
Astronomical Twilight 2:49 AM MDT 10:57 PM MDT
Moon 3:23 PM MDT (5/20) 2:30 AM MDT (5/20)
Length of Visible Light 16h 29m
Length of Day
15h 16m
Waxing Gibbous, 75% of the Moon is Illuminated
May 20
Waxing Gibbous
May 24
Full
May 31
Last Quarter
Jun 8
New
Jun 16
First Quarter

Hourly Weather History & Observations

Time (MDT) Temp. Windchill Dew Point Humidity Pressure Visibility Wind Dir Wind Speed Gust Speed Precip Events Conditions
12:15 AM 48.2 °F - 48.2 °F 100% 29.77 in 3.0 mi North 26.5 mph 33.4 mph 0.02 in Rain Heavy Rain
12:35 AM 48.2 °F - 48.2 °F 100% 29.76 in 4.0 mi North 28.8 mph 35.7 mph 0.04 in   Overcast
12:55 AM 48.2 °F - 48.2 °F 100% 29.76 in 2.5 mi North 26.5 mph 39.1 mph 0.06 in   Overcast
1:15 AM 46.4 °F 37.7 °F 46.4 °F 100% 29.76 in 3.0 mi North 26.5 mph 40.3 mph N/A   Overcast
1:35 AM 46.4 °F 37.7 °F 46.4 °F 100% 29.76 in 2.5 mi North 26.5 mph 41.4 mph 0.01 in Rain Light Rain
2:15 AM 46.4 °F 37.2 °F 46.4 °F 100% 29.76 in 1.8 mi North 29.9 mph 39.1 mph 0.08 in Rain Heavy Rain
2:35 AM 46.4 °F 37.2 °F 46.4 °F 100% 29.76 in 2.5 mi North 29.9 mph 41.4 mph 0.10 in   Overcast
2:55 AM 46.4 °F 37.5 °F 46.4 °F 100% 29.75 in 2.0 mi North 27.6 mph 39.1 mph 0.11 in   Overcast
3:35 AM 46.4 °F 37.7 °F 46.4 °F 100% 29.77 in 2.0 mi North 26.5 mph 36.8 mph 0.05 in Rain Rain
3:55 AM 46.4 °F 37.7 °F 46.4 °F 100% 29.77 in 2.0 mi North 26.5 mph 34.5 mph 0.05 in   Overcast
4:15 AM 46.4 °F 38.1 °F 46.4 °F 100% 29.77 in 1.8 mi North 24.2 mph 34.5 mph N/A   Overcast
4:35 AM 46.4 °F 37.9 °F 46.4 °F 100% 29.77 in 2.5 mi North 25.3 mph 33.4 mph N/A   Overcast
4:55 AM 46.4 °F 38.1 °F 46.4 °F 100% 29.77 in 5.0 mi North 24.2 mph 31.1 mph N/A Rain Light Rain
5:15 AM 46.4 °F 37.7 °F 46.4 °F 100% 29.77 in 5.0 mi North 26.5 mph 33.4 mph N/A Rain Light Rain
5:35 AM 46.4 °F 38.1 °F 46.4 °F 100% 29.77 in 2.5 mi North 24.2 mph 33.4 mph N/A   Overcast
6:15 AM 46.4 °F 38.3 °F 46.4 °F 100% 29.79 in 5.0 mi North 23.0 mph 32.2 mph N/A   Overcast
6:35 AM 46.4 °F 38.1 °F 46.4 °F 100% 29.80 in 2.0 mi North 24.2 mph 31.1 mph N/A Rain Light Rain
6:55 AM 46.4 °F 38.1 °F 46.4 °F 100% 29.81 in 1.5 mi North 24.2 mph 32.2 mph N/A Rain Light Rain
7:15 AM 46.4 °F 38.3 °F 46.4 °F 100% 29.81 in 1.5 mi North 23.0 mph 33.4 mph N/A   Overcast
7:35 AM 46.4 °F 38.3 °F 46.4 °F 100% 29.81 in 3.0 mi North 23.0 mph 32.2 mph N/A Rain Light Rain
8:15 AM 46.4 °F 37.9 °F 46.4 °F 100% 29.82 in 3.0 mi North 25.3 mph 33.4 mph N/A Rain Light Rain
8:35 AM 46.4 °F 38.3 °F 46.4 °F 100% 29.82 in 1.8 mi North 23.0 mph 31.1 mph N/A   Overcast
8:55 AM 46.4 °F 38.1 °F 46.4 °F 100% 29.83 in 3.0 mi North 24.2 mph 33.4 mph N/A Rain Light Rain
9:35 AM 48.2 °F - 48.2 °F 100% 29.83 in 4.0 mi North 23.0 mph 31.1 mph N/A Rain Light Rain
9:55 AM 48.2 °F - 48.2 °F 100% 29.83 in 4.0 mi North 21.9 mph 28.8 mph N/A Rain Light Rain
10:15 AM 48.2 °F - 48.2 °F 100% 29.84 in 4.0 mi North 23.0 mph 26.5 mph N/A Rain Light Rain
10:35 AM 48.2 °F - 48.2 °F 100% 29.84 in 2.5 mi North 27.6 mph 33.4 mph N/A Rain Light Rain
10:55 AM 48.2 °F - 48.2 °F 100% 29.85 in 1.8 mi North 24.2 mph 32.2 mph N/A Rain Light Rain
11:15 AM 46.4 °F 38.1 °F 46.4 °F 100% 29.85 in 1.8 mi North 24.2 mph 34.5 mph N/A Rain Light Rain
11:35 AM 46.4 °F 37.7 °F 46.4 °F 100% 29.85 in 2.0 mi North 26.5 mph 33.4 mph N/A Rain Light Rain
11:55 AM 46.4 °F 37.5 °F 46.4 °F 100% 29.86 in 3.0 mi North 27.6 mph 31.1 mph N/A   Mostly Cloudy
12:15 PM 46.4 °F 38.3 °F 46.4 °F 100% 29.86 in 2.0 mi North 23.0 mph 32.2 mph N/A   Mostly Cloudy
12:55 PM 46.4 °F 37.7 °F 46.4 °F 100% 29.86 in 5.0 mi North 26.5 mph 32.2 mph N/A Rain Light Rain
1:15 PM 46.4 °F 37.7 °F 46.4 °F 100% 29.87 in 4.0 mi North 26.5 mph 31.1 mph N/A Rain Light Rain
1:35 PM 48.2 °F - 48.2 °F 100% 29.87 in 4.0 mi North 25.3 mph 34.5 mph N/A Rain Light Rain
1:55 PM 48.2 °F - 48.2 °F 100% 29.87 in 5.0 mi North 28.8 mph 33.4 mph N/A   Mostly Cloudy
2:15 PM 48.2 °F - 48.2 °F 100% 29.88 in 4.0 mi North 26.5 mph 34.5 mph N/A   Mostly Cloudy
2:35 PM 48.2 °F - 48.2 °F 100% 29.87 in 3.0 mi North 28.8 mph 34.5 mph N/A Rain Light Rain
2:55 PM 48.2 °F - 48.2 °F 100% 29.88 in 2.5 mi North 21.9 mph 33.4 mph 0.03 in Rain Rain
3:15 PM 48.2 °F - 48.2 °F 100% 29.88 in 1.5 mi North 25.3 mph 33.4 mph 0.02 in Rain Rain
3:35 PM 48.2 °F - 48.2 °F 100% 29.88 in 1.2 mi North 19.6 mph 27.6 mph 0.03 in   Overcast
3:55 PM 48.2 °F - 48.2 °F 100% 29.89 in 1.5 mi North 24.2 mph 31.1 mph 0.03 in   Overcast
4:15 PM 50.0 °F - 50.0 °F 100% 29.89 in 3.0 mi North 24.2 mph 32.2 mph N/A   Mostly Cloudy
4:35 PM 50.0 °F - 50.0 °F 100% 29.89 in 3.0 mi NNE 23.0 mph 32.2 mph 0.03 in Rain Rain
4:55 PM 50.0 °F - 50.0 °F 100% 29.90 in 4.0 mi NNE 24.2 mph 31.1 mph 0.03 in   Mostly Cloudy
5:15 PM 50.0 °F - 50.0 °F 100% 29.92 in 3.0 mi NNE 24.2 mph 35.7 mph N/A   Scattered Clouds
5:35 PM 50.0 °F - 50.0 °F 100% 29.92 in 8.0 mi North 24.2 mph 34.5 mph N/A Rain Light Rain
5:55 PM 50.0 °F - 50.0 °F 100% 29.93 in 5.0 mi North 21.9 mph 29.9 mph N/A Rain Light Rain
6:15 PM 50.0 °F - 50.0 °F 100% 29.94 in 7.0 mi North 21.9 mph 31.1 mph N/A Rain Light Rain
6:35 PM 50.0 °F - 50.0 °F 100% 29.95 in 4.0 mi North 20.7 mph 29.9 mph N/A Rain Light Rain
6:55 PM 48.2 °F - 48.2 °F 100% 29.95 in 7.0 mi North 24.2 mph 34.5 mph N/A   Mostly Cloudy
7:15 PM 48.2 °F - 48.2 °F 100% 29.96 in 7.0 mi NNE 21.9 mph 31.1 mph N/A Rain Light Rain
7:35 PM 48.2 °F - 48.2 °F 100% 29.96 in 10.0 mi North 17.3 mph 28.8 mph N/A Rain Light Rain
8:15 PM 48.2 °F - 48.2 °F 100% 29.96 in 10.0 mi North 13.8 mph - N/A   Overcast
8:35 PM 48.2 °F - 48.2 °F 100% 29.96 in 10.0 mi NNW 10.4 mph - N/A   Overcast
8:55 PM 48.2 °F - 48.2 °F 100% 29.96 in 10.0 mi NNW 12.7 mph - N/A   Overcast
9:15 PM 48.2 °F - 48.2 °F 100% 29.96 in 10.0 mi NNW 12.7 mph - N/A   Overcast
9:35 PM 48.2 °F - 48.2 °F 100% 29.96 in 10.0 mi NNW 12.7 mph - N/A Rain Light Rain
9:55 PM 48.2 °F - 48.2 °F 100% 29.96 in 10.0 mi NNW 10.4 mph - N/A Rain Light Rain
10:15 PM 48.2 °F - 48.2 °F 100% 29.96 in 5.0 mi NNW 9.2 mph - N/A Rain Light Rain
10:35 PM 48.2 °F - 48.2 °F 100% 29.96 in 4.0 mi NNW 13.8 mph 17.3 mph 0.02 in Rain Light Rain
10:55 PM 48.2 °F - 48.2 °F 100% 29.96 in 2.0 mi NNE 11.5 mph 23.0 mph 0.15 in Rain Heavy Rain
11:15 PM 48.2 °F - 48.2 °F 100% 29.97 in 4.0 mi NNE 12.7 mph 18.4 mph 0.09 in Rain Rain
11:35 PM 48.2 °F - 48.2 °F 100% 29.97 in 3.0 mi North 15.0 mph - 0.15 in Rain Light Rain
11:55 PM 48.2 °F - 48.2 °F 100% 29.96 in 10.0 mi North 10.4 mph - 0.15 in   Overcast